Regional Weather Roundup
Issued by NWS Charleston, SC

Current Version | Previous Version | Graphics & Text | Print | Product List | Glossary On
Versions: 1 2 3 4 5 6 7 8 9 10 11 12 13 14 15 16 17 18 19 20 21 22 23 24 25 26 27 28 29 30 31 32 33 34 35 36 37 38 39 40 41 42 43 44 45 46 47 48 49 50
000
ASUS42 KCHS 260212
RWRCHS

REGIONAL WEATHER ROUNDUP
NATIONAL WEATHER SERVICE CHARLESTON SC
1000 PM EDT THU MAY 25 2017

NOTE: "FAIR" INDICATES FEW OR NO CLOUDS BELOW 12,000 FEET WITH NO
SIGNIFICANT WEATHER AND/OR OBSTRUCTIONS TO VISIBILITY.

NOT ALL STATIONS ARE QUALITY CONTROLLED. USE DATA WITH CAUTION...
ESPECIALLY DEWPOINT OBSERVATIONS.

SCZ027-030-031-034>040-042>050-260300-
...SOUTHEAST SOUTH CAROLINA...

CITY           SKY/WX    TMP DP  RH WIND       PRES   REMARKS
N CHARLESTON   CLEAR     67  52  58 SW8       29.85R
WATERFRONT PRK   N/A     71  56  58 SW6       29.84R
JOHNS ISLAND   FAIR      68  55  64 SW6       29.86R
PINOPOLIS        N/A     70  59  68 SW8       29.74R
MONCKS CORNER  FAIR      64  52  63 SW7       29.84R
SUMMERVILLE    FAIR      64  54  68 SW3       29.86R
BEAUFORT MCAS  CLEAR     67  58  72 SW5       29.87R
BEAUFORT ARPT  FAIR      70  54  56 SW7       29.87R
HILTON HEAD IS CLEAR     72  55  56 SW3       29.89R
WALTERBORO     CLEAR     63  52  67 SW3       29.87R
ALLENDALE      FAIR      66  54  63 CALM      29.85R

...SOUTHERN MIDLANDS AND PEE DEE...

CITY           SKY/WX    TMP DP  RH WIND       PRES   REMARKS
GEORGETOWN     FAIR      63  54  72 SW8       29.84R
KINGSTREE      FAIR      64  52  63 CALM      29.81R
ORANGEBURG     CLEAR     64  54  69 SW5       29.84R
BARNWELL       FAIR      68  55  64 SW7       29.85R
AIKEN          FAIR      63  52  67 SW7       29.88R
MANNING        FAIR      66  57  72 SW21      29.82R
COLUMBIA       CLEAR     67  53  61 SW8       29.81R
SUMTER         CLEAR     66  54  63 SW9       29.78R
FLORENCE       CLEAR     67  53  61 SW8       29.78R
MYRTLE BEACH   CLEAR     70  55  60 SW8       29.81
N MYRTLE BEACH CLEAR     68  55  63 SW8       29.79R

$$

GAZ063-065-086>088-099>101-113>116-118-119-134>141-150-260300-
...SOUTHEAST GEORGIA...

CITY           SKY/WX    TMP DP  RH WIND       PRES   REMARKS
SAVANNAH ARPT  CLEAR     67  53  61 SW3       29.88R
HUNTER AAF     CLEAR     65  58  77 CALM      29.86R
FORT STEWART   CLEAR     64  56  74 CALM      29.87R
STATESBORO     CLEAR     63  58  84 CALM      29.87S
SYLVANIA       CLEAR     64  60  87 CALM      29.88R
CLAXTON        FAIR      61  61 100 CALM      29.89R

...CSRA...CENTRAL AND FAR SOUTHEAST GEORGIA...

CITY           SKY/WX    TMP DP  RH WIND       PRES   REMARKS
THOMSON        CLEAR     60  56  87 W5        29.91R
AUGUSTA-BUSH   CLEAR     66  54  65 SW6       29.85R
AUGUSTA-DANIEL CLEAR     67  50  54 CALM      29.86R
SWAINSBORO     FAIR      63  57  82 CALM      29.89R
VIDALIA        CLEAR     66  55  68 SW3       29.89R
EASTMAN        FAIR      62  49  62 CALM      29.92R
HAZLEHURST     FAIR      64  59  83 CALM      29.89R
ALMA           CLEAR     62  56  80 CALM      29.89R
WAYCROSS       CLEAR     69  58  67 CALM      29.90R
JESUP          FAIR      63  54  72 CALM      29.90R
BAXLEY         FAIR      64  64 100 CALM      29.89R
BRUNSWICK      CLEAR     63  59  88 CALM      29.90R
SAINT SIMONS   CLEAR     73  53  49 W5        29.89R

$$

SCZ027-028-034-036>038-045-046-048>050-GAZ119-141-260300-
...LAKE AND SUPPLEMENTAL COASTAL OBSERVATIONS...

STATION/POSITION TIME  TEMP    WIND        PRES    WAVE   SWELL
                       AIR SEA DIR/SP/G            HT/PER HT/PER/DIR
                 (UTC) (F)     (DEG/KT/KT) (MB)    (FT/S) (FT/S/D)
WINYAH BAY       0045   71     240/  7     1008.0
LAKE MURRAY      0120   70     260/ 12/ 15 1008.1
ACE BASIN NERRS  0045   71     240/  2     1010.0
FORT PULASKI     0142   73     250/  5/  7 1012.0R
SAPELO ISLAND    0100   75     260/  6     1011.0

$$

ANZ835-935-AMZ111-154-330-350-352-354-370-450-454-472-260300-
...C-MAN AND BUOY OBSERVATIONS...

STATION/POSITION TIME  TEMP    WIND        PRES    WAVE   SWELL
                       AIR SEA DIR/SP/G            HT/PER HT/PER/DIR
                 (UTC) (F)     (DEG/KT/KT) (MB)    (FT/S) (FT/S/D)
BUOY 41004       0150   74 75  250/ 19/ 23 1010.6R   6/ 6   2/150/ 8
BUOY 41008       0150   76 77  260/ 14/ 16 1011.6R   3/ 4   2/ 90/ 9
FOLLY BEACH CMAN 0100   72     240/  7/ 10 1010.7R
CAPERS NEARSHORE 0108   79 77  270/ 17/ 23 1009.4R
FRIPP NEARSHORE  0108   75 77  260/ 16/ 21 1010.3R


STATION/POSITION TIME  TEMP    WIND        PRES    WAVE   SWELL
                       AIR SEA DIR/SP/G            HT/PER HT/PER/DIR
                 (UTC) (F)     (DEG/KT/KT) (MB)    (FT/S) (FT/S/D)
5E ST. MARYS GA  0100      78                N/A     2/ 6
FRYING PAN BUOY  0150   74 75  260/ 23/ 27 1008.8R   8/ 8   5/200/ 8
BUOY 41025       0150   73 78  250/ 27/ 33 1005.0R  10/ 8   7/220/ 8
CAPE LOOKOUT NC  0100   71     250/ 19/ 28 1005.4R
BUOY 41002       0050   77 77  250/ 21/ 29 1010.0   10/ 8
BUOY 41010       0150   79 78  210/  2/  4 1013.1R   6/ 7   5/230/ 7
ST AUGUSTINE FL  0200   73 76  250/  5/  6 1013.8R


$$




USA.gov is the U.S. government's official web portal to all federal, state and local government web resources and services.